Welcome to the New NWS' Forecast!
Most changes are behind the scenes, but click here for differences you might notice.

Regional Weather Roundup (RWR)

Issued by National Weather Service (NWS)

                            
000
NZUS99 KTBW 230816
RWRTPA
FLORIDA REGIONAL WEATHER ROUNDUP
NATIONAL WEATHER SERVICE TAMPA BAY RUSKIN FL
400 AM EDT TUE OCT 23 2018

NOTE: "FAIR" INDICATES FEW OR NO CLOUDS BELOW 12,000 FEET WITH NO
SIGNIFICANT WEATHER AND/OR OBSTRUCTIONS TO VISIBILITY.


  
STATION/POSITION



FLZ042-048>051-055-056-060-061-230900-
EXTRA STATIONS
  
CITY           SKY/WX    TMP DP  RH WIND       PRES   REMARKS
Everglades Cty NOT AVBL                                               
CRYSTAL RIVER  FAIR      63  59  88 CALM      30.10F                  
SEBRING        FAIR      64  59  86 CALM      30.07F                  
EGLIN AFB      FAIR      63  56  79 NE3       30.12S HAZE             
CANAVERAL      FAIR      75  63  67 E6        30.06F                  

$$
FLZ001>010-012>015-230900-
PANHANDLE FLORIDA
  
CITY           SKY/WX    TMP DP  RH WIND       PRES   REMARKS
PENSACOLA      FAIR      68  59  73 NE6       30.10F                  
MILTON NAS     FAIR      63  60  90 CALM      30.12                   
CRESTVIEW      FAIR      62  58  86 CALM      30.13F                  
VALPARAISO     CLOUDY    68  55  64 VRB5      30.11S                  
MARY ESTHER    CLOUDY    67  60  76 CALM      30.12F                  
TYNDALL AFB    MOCLDY    67  58  74 E8        30.12F                  

STATION/POSITION


29.2N   88.2W

$$
FLZ011-016>039-230900-
NORTH FLORIDA
  
CITY           SKY/WX    TMP DP  RH WIND       PRES   REMARKS
TALLAHASSEE    FAIR      66  61  84 NE5       30.13F                  
PERRY          FAIR      64  60  88 E3        30.13F                  
CROSS CITY     FAIR      62  60  95 N3        30.12S                  
GAINESVILLE    FAIR      64  61  90 CALM      30.14F                  
JACKSONVILLE   MOCLDY    63  61  93 CALM      30.12F                  
JAX NAS        MOCLDY    66  63  90 NW5       30.13S                  
JAX CRAIG      FAIR      65  64  97 CALM      30.12F                  
ST AUGUSTINE   MOCLDY    68  62  81 W5        30.12S                  

STATION/POSITION


KEATON BEACH
31.4N   80.9W
ST AUGUSTINE

$$
FLZ040-043>046-052-053-057-058-063-230900-
CENTRAL FLORIDA
  
CITY           SKY/WX    TMP DP  RH WIND       PRES   REMARKS
OCALA            N/A     63  60  90 CALM      30.12S                  
LEESBURG       FAIR      65  63  93 CALM      30.11S                  
SANFORD        MOCLDY    66  65  96 NW3       30.09F                  
ORLANDO EXEC   FAIR      70  65  84 CALM      30.09F                  
ORLANDO INTL   FAIR      68  62  81 VRB3      30.09F                  
WINTER HAVEN   FAIR      68  64  87 NE3       30.09F                  
BARTOW         FAIR      64  64 100 NE6       30.07F                  

$$
FLZ041-047-054-059-064-230900-
EAST CENTRAL FLORIDA
  
CITY           SKY/WX    TMP DP  RH WIND       PRES   REMARKS
DAYTONA BEACH  MOCLDY    66  65  96 CALM      30.09F                  
JFK SPACE CTR  CLOUDY    68  65  91 CALM      30.07F                  
PATRICK AFB    FAIR      77  65  66 SE6       30.06F                  
MELBOURNE      MOCLDY    72  65  78 SW3       30.07F                  
VERO BEACH     FAIR      65  61  87 CALM      30.06F                  
FT PIERCE      FAIR      63  60  90 CALM      30.06F                  
STUART         FAIR      73  61  64 CALM      30.07F                  

STATION/POSITION


28.9N   78.5W

$$
FLZ042-048>051-055-056-060-061-230900-
WEST CENTRAL FLORIDA
  
CITY           SKY/WX    TMP DP  RH WIND       PRES   REMARKS
BROOKSVILLE    FAIR      62  60  93 CALM      30.10F                  
TAMPA          MOCLDY    70  62  76 NE3       30.09F                  
MACDILL AFB    FAIR      67  62  83 E3        30.08S                  
ST PETERSBURG  FAIR      71  63  75 E5        30.08F                  
ST PET-WHITTED FAIR      75  63  66 E10       30.06F                  
SARASOTA       FAIR      67  62  84 E6        30.06S                  

STATION/POSITION


CEDAR KEY
VENICE

$$
FLZ062-065-066-069-070-075>078-230900-
SOUTHWEST FLORIDA AND KEYS
  
CITY           SKY/WX    TMP DP  RH WIND       PRES   REMARKS
PUNTA GORDA    FAIR      67  62  84 NE5       30.08F                  
FT MYERS       FAIR      68  65  90 NE5       30.05F                  
SOUTHWEST INTL FAIR      68  65  90 NE5       30.06F                  
NAPLES         FAIR      71  63  75 NE6       30.04F                  
MARATHON       MOCLDY    79  72  79 E8        30.02S                  
KEY WEST NAS   FAIR      80  72  76 NE7       30.02S                  
KEY WEST INTL  MOCLDY    81  72  74 NE8       30.02F                  

STATION/POSITION


VENICE
26.0N   85.6W
SAND KEY
SOMBRERO KEY
LONG KEY
MOLASSES REEF

$$
FLZ067-068-071>074-230900-
SOUTHEAST FLORIDA 
  
CITY           SKY/WX    TMP DP  RH WIND       PRES   REMARKS
W PALM BEACH   FAIR      76  63  64 E5        30.05F                  
POMPANO BEACH  FAIR      78  66  66 E9        30.04F                  
FT LAUDER-EXEC FAIR      77  67  71 E8        30.04S                  
FT LAUDERDALE  MOCLDY    78  70  76 E13       30.03S                  
PEMBROKE PINES CLOUDY    78  69  73 NE7       30.05S                  
OPA LOCKA      FAIR      76  69  79 E6        30.04F                  
MIAMI          LGT RAIN  77  70  79 CALM      30.04S                  
WEST KENDALL   FAIR      73  68  84 CALM      30.03F                  
HOMESTEAD      FAIR      77  69  75 NE6       30.02F                  

STATION/POSITION


LAKE WORTH
FOWEY ROCKS
SETTLEMENT POINT

$$